H1 CPF 2 NER 2024 2 7 9 038 01 glonass143 H2 2007501 9143 46805 2024 2 7 0 0 0 2024 2 10 23 45 0 900 1 1 0 0 0 1 H9 10 0 60347 0.00000 0 -10927346.051 -9386498.501 21051675.226 10 0 60347 900.00000 0 -11308945.359 -11862510.736 19545209.579 10 0 60347 1800.00000 0 -11829013.825 -14099586.207 17659110.987 10 0 60347 2700.00000 0 -12444980.657 -16048386.250 15429949.567 10 0 60347 3600.00000 0 -13107018.261 -17669997.596 12900975.646 10 0 60347 4500.00000 0 -13760260.733 -18937335.753 10121284.293 10 0 60347 5400.00000 0 -14347252.319 -19836063.352 7144864.172 10 0 60347 6300.00000 0 -14810522.328 -20364985.308 4029548.863 10 0 60347 7200.00000 0 -15095177.324 -20535904.528 835891.061 10 0 60347 8100.00000 0 -15151400.329 -20372944.638 -2374018.188 10 0 60347 9000.00000 0 -14936750.485 -19911368.787 -5537761.771 10 0 60347 9900.00000 0 -14418164.885 -19195944.914 -8593815.969 10 0 60347 10800.00000 0 -13573576.827 -18278927.173 -11482752.641 10 0 60347 11700.00000 0 -12393080.960 -17217739.454 -14148400.001 10 0 60347 12600.00000 0 -10879595.056 -16072459.527 -16538938.743 10 0 60347 13500.00000 0 -9048989.472 -14903210.586 -18607911.807 10 0 60347 14400.00000 0 -6929677.873 -13767570.710 -20315127.963 10 0 60347 15300.00000 0 -4561685.554 -12718109.687 -21627441.708 10 0 60347 16200.00000 0 -1995233.600 -11800156.965 -22519394.601 10 0 60347 17100.00000 0 711102.660 -11049894.447 -22973706.047 10 0 60347 18000.00000 0 3492584.713 -10492853.903 -22981604.501 10 0 60347 18900.00000 0 6280760.794 -10142881.543 -22542993.209 10 0 60347 19800.00000 0 9006073.448 -10001612.549 -21666447.722 10 0 60347 20700.00000 0 11600516.920 -10058476.879 -20369045.545 10 0 60347 21600.00000 0 14000234.668 -10291235.346 -18676031.465 10 0 60347 22500.00000 0 16147949.786 -10667022.758 -16620325.039 10 0 60347 23400.00000 0 17995128.034 -11143853.631 -14241879.780 10 0 60347 24300.00000 0 19503784.322 -11672526.584 -11586906.345 10 0 60347 25200.00000 0 20647858.288 -12198846.788 -8706974.616 10 0 60347 26100.00000 0 21414102.528 -12666072.425 -5658012.073 10 0 60347 27000.00000 0 21802447.354 -13017481.641 -2499217.794 10 0 60347 27900.00000 0 21825827.861 -13198951.393 708086.753 10 0 60347 28800.00000 0 21509481.520 -13161438.976 3901647.720 10 0 60347 29700.00000 0 20889746.717 -12863261.179 7019486.408 10 0 60347 30600.00000 0 20012413.508 -12272074.424 10001100.791 10 0 60347 31500.00000 0 18930696.535 -11366471.919 12788637.574 10 0 60347 32400.00000 0 17702915.800 -10137129.878 15328012.099 10 0 60347 33300.00000 0 16389982.983 -8587453.819 17569954.539 10 0 60347 34200.00000 0 15052798.972 -6733696.866 19470962.366 10 0 60347 35100.00000 0 13749671.713 -4604543.976 20994141.049 10 0 60347 36000.00000 0 12533862.418 -2240178.247 22109917.174 10 0 60347 36900.00000 0 11451362.604 309133.072 22796610.611 10 0 60347 37800.00000 0 10538994.668 2984875.341 23040855.056 10 0 60347 38700.00000 0 9822915.119 5722471.083 22837859.033 10 0 60347 39600.00000 0 9317582.776 8453722.847 22191502.319 10 0 60347 40500.00000 0 9025234.906 11109414.156 21114265.740 10 0 60347 41400.00000 0 8935893.068 13621961.603 19626995.218 10 0 60347 42300.00000 0 9027898.401 15928008.744 17758504.048 10 0 60347 43200.00000 0 9268953.895 17970854.564 15545020.354 10 0 60347 44100.00000 0 9617629.877 19702615.900 13029489.639 10 0 60347 45000.00000 0 10025269.357 21086033.849 10260745.285 10 0 60347 45900.00000 0 10438212.813 22095848.885 7292562.557 10 0 60347 46800.00000 0 10800248.255 22719687.214 4182614.171 10 0 60347 47700.00000 0 11055182.600 22958421.287 991347.726 10 0 60347 48600.00000 0 11149424.931 22825989.497 -2219192.906 10 0 60347 49500.00000 0 11034471.507 22348682.921 -5386578.854 10 0 60347 50400.00000 0 10669186.320 21563929.530 -8449215.865 10 0 60347 51300.00000 0 10021779.591 20518627.608 -11347547.835 10 0 60347 52200.00000 0 9071399.382 19267099.245 -14025220.075 10 0 60347 53100.00000 0 7809267.897 17868750.784 -16430179.053 10 0 60347 54000.00000 0 6239313.418 16385539.398 -18515686.791 10 0 60347 54900.00000 0 4378270.196 14879352.937 -20241230.011 10 0 60347 55800.00000 0 2255241.088 13409413.599 -21573306.379 10 0 60347 56700.00000 0 -89259.574 12029814.632 -22486072.857 10 0 60347 57600.00000 0 -2604743.705 10787293.303 -22961844.012 10 0 60347 58500.00000 0 -5232608.424 9719333.190 -22991431.092 10 0 60347 59400.00000 0 -7908339.449 8852674.674 -22574315.861 10 0 60347 60300.00000 0 -10563967.824 8202295.229 -21718656.257 10 0 60347 61200.00000 0 -13130678.395 7770901.271 -20441124.125 10 0 60347 62100.00000 0 -15541462.173 7548951.828 -18766578.379 10 0 60347 63000.00000 0 -17733702.925 7515211.990 -16727579.973 10 0 60347 63900.00000 0 -19651591.009 7637811.901 -14363758.065 10 0 60347 64800.00000 0 -21248264.605 7875765.875 -11721039.517 10 0 60347 65700.00000 0 -22487589.810 8180886.920 -8850756.536 10 0 60347 66600.00000 0 -23345505.996 8500015.326 -5808649.671 10 0 60347 67500.00000 0 -23810880.979 8777466.778 -2653785.469 10 0 60347 68400.00000 0 -23885840.986 8957596.153 552590.176 10 0 60347 69300.00000 0 -23585562.356 8987368.319 3748240.587 10 0 60347 70200.00000 0 -22937534.446 8818826.921 6871145.562 10 0 60347 71100.00000 0 -21980325.351 8411356.455 9860703.774 10 0 60347 72000.00000 0 -20761902.789 7733641.650 12658906.830 10 0 60347 72900.00000 0 -19337581.070 6765240.965 15211462.269 10 0 60347 73800.00000 0 -17767680.521 5497707.171 17468843.854 10 0 60347 74700.00000 0 -16114997.600 3935207.052 19387249.055 10 0 60347 75600.00000 0 -14442191.578 2094613.153 20929445.593 10 0 60347 76500.00000 0 -12809196.910 5062.495 22065491.097 10 0 60347 77400.00000 0 -11270769.136 -2293000.629 22773312.393 10 0 60347 78300.00000 0 -9874266.378 -4749259.292 23039133.617 10 0 60347 79200.00000 0 -8657758.586 -7305377.732 22857745.077 10 0 60347 80100.00000 0 -7648542.976 -9897198.574 22232607.713 10 0 60347 81000.00000 0 -6862127.204 -12457193.467 21175790.927 10 0 60347 81900.00000 0 -6301722.328 -14917066.405 19707744.543 10 0 60347 82800.00000 0 -5958266.451 -17210402.421 17856908.723 10 0 60347 83700.00000 0 -5810977.748 -19275252.107 15659168.640 10 0 60347 84600.00000 0 -5828413.407 -21056544.779 13157163.711 10 0 60347 85500.00000 0 -5969989.720 -22508229.790 10399464.086 10 0 60348 0.00000 0 -6187898.975 -23595056.480 7439630.128 10 0 60348 900.00000 0 -6429342.032 -24293918.709 4335171.175 10 0 60348 1800.00000 0 -6638981.422 -24594706.072 1146427.833 10 0 60348 2700.00000 0 -6761510.937 -24500627.896 -2064605.519 10 0 60348 3600.00000 0 -6744231.838 -24027994.840 -5235490.722 10 0 60348 4500.00000 0 -6539525.708 -23205468.031 -8304565.620 10 0 60348 5400.00000 0 -6107118.166 -22072807.496 -11212148.902 10 0 60348 6300.00000 0 -5416036.483 -20679172.974 -13901705.847 10 0 60348 7200.00000 0 -4446177.170 -19081049.092 -16320951.593 10 0 60348 8100.00000 0 -3189416.221 -17339882.726 -18422870.096 10 0 60348 9000.00000 0 -1650214.092 -15519532.283 -20166628.726 10 0 60348 9900.00000 0 154311.049 -13683636.372 -21518370.770 10 0 60348 10800.00000 0 2194845.810 -11893012.378 -22451870.717 10 0 60348 11700.00000 0 4430861.321 -10203193.817 -22949040.021 10 0 60348 12600.00000 0 6812070.026 -8662209.234 -23000274.038 10 0 60348 13500.00000 0 9280299.420 -7308694.918 -22604633.941 10 0 60348 14400.00000 0 11771705.297 -6170419.470 -21769860.549 10 0 60348 15300.00000 0 14219232.887 -5263280.882 -20512220.137 10 0 60348 16200.00000 0 16555223.995 -4590816.856 -18856185.449 10 0 60348 17100.00000 0 18714062.172 -4144247.585 -16833958.136 10 0 60348 18000.00000 0 20634746.221 -3903047.935 -14484841.859 10 0 60348 18900.00000 0 22263285.335 -3836023.758 -11854478.084 10 0 60348 19800.00000 0 23554816.449 -3902846.007 -8993959.250 10 0 60348 20700.00000 0 24475355.899 -4055977.054 -5958836.429 10 0 60348 21600.00000 0 25003112.647 -4242907.208 -2808040.682 10 0 60348 22500.00000 0 25129308.698 -4408606.345 397260.941 10 0 60348 23400.00000 0 24858472.781 -4498086.529 3594852.410 10 0 60348 24300.00000 0 24208195.546 -4458966.854 6722675.563 10 0 60348 25200.00000 0 23208356.974 -4243931.674 9720033.251 10 0 60348 26100.00000 0 21899858.784 -3812977.924 12528765.298 10 0 60348 27000.00000 0 20332915.300 -3135356.171 15094374.487 10 0 60348 27900.00000 0 18564974.525 -2191122.920 17367080.895 10 0 60348 28800.00000 0 16658356.517 -972238.097 19302784.359 10 0 60348 29700.00000 0 14677707.707 516839.340 20863916.829 10 0 60348 30600.00000 0 12687377.236 2259083.784 22020168.558 10 0 60348 31500.00000 0 10748824.435 4225367.388 22749074.503 10 0 60348 32400.00000 0 8918165.062 6375438.544 23036449.974 10 0 60348 33300.00000 0 7243957.963 8659375.012 22876667.366 10 0 60348 34200.00000 0 5765323.807 11019452.634 22272768.632 10 0 60348 35100.00000 0 4510473.656 13392353.168 21236411.157 10 0 60348 36000.00000 0 3495708.160 15711620.593 19787647.657 10 0 60348 36900.00000 0 2724928.577 17910264.631 17954543.767 10 0 60348 37800.00000 0 2189679.573 19923403.771 15772639.983 10 0 60348 38700.00000 0 1869721.489 21690838.106 13284267.621 10 0 60348 39600.00000 0 1734107.603 23159444.721 10537731.352 10 0 60348 40500.00000 0 1742720.589 24285295.477 7586373.647 10 0 60348 41400.00000 0 1848202.864 25035408.274 4487538.937 10 0 60348 42300.00000 0 1998198.742 25389058.017 1301457.618 10 0 60348 43200.00000 0 2137812.857 25338591.875 -1909928.177 10 0 60348 44100.00000 0 2212179.977 24889714.270 -5084173.742 10 0 60348 45000.00000 0 2169036.441 24061229.370 -8159551.672 10 0 60348 45900.00000 0 1961183.256 22884251.906 -11076257.958 10 0 60348 46800.00000 0 1548735.479 21400919.570 -13777580.152 10 0 60348 47700.00000 0 901061.614 19662661.401 -16211004.152 10 0 60348 48600.00000 0 -1670.055 17728095.260 -18329237.696 10 0 60348 49500.00000 0 -1167404.476 15660642.946 -20091130.439 10 0 60348 50400.00000 0 -2591618.960 13525963.296 -21462472.706 10 0 60348 51300.00000 0 -4257273.766 11389310.888 -22416657.713 10 0 60348 52200.00000 0 -6135297.068 9312930.784 -22935194.780 10 0 60348 53100.00000 0 -8185584.713 7353597.899 -23008064.078 10 0 60348 54000.00000 0 -10358473.676 5560403.176 -22633906.586 10 0 60348 54900.00000 0 -12596628.315 3972878.114 -21820046.036 10 0 60348 55800.00000 0 -14837261.275 2619534.891 -20582342.758 10 0 60348 56700.00000 0 -17014596.968 1516881.752 -18944882.545 10 0 60348 57600.00000 0 -19062475.407 668953.395 -16939506.556 10 0 60348 58500.00000 0 -20916988.207 67374.585 -14605191.418 10 0 60348 59400.00000 0 -22519037.166 -308047.152 -11987291.376 10 0 60348 60300.00000 0 -23816708.950 -488225.988 -9136657.056 10 0 60348 61200.00000 0 -24767366.922 -513246.734 -6108647.839 10 0 60348 62100.00000 0 -25339372.901 -430424.635 -2962056.954 10 0 60348 63000.00000 0 -25513367.060 -292058.800 242029.846 10 0 60348 63900.00000 0 -25283052.553 -152974.830 3441419.734 10 0 60348 64800.00000 0 -24655452.258 -67961.099 6574019.228 10 0 60348 65700.00000 0 -23650627.064 -89207.526 9579038.069 10 0 60348 66600.00000 0 -22300867.698 -263855.505 12398167.020 10 0 60348 67500.00000 0 -20649394.036 -631762.926 14976706.793 10 0 60348 68400.00000 0 -18748616.385 -1223579.042 17264626.325 10 0 60348 69300.00000 0 -16658031.360 -2059210.908 19217530.134 10 0 60348 70200.00000 0 -14441840.037 -3146746.620 20797516.397 10 0 60348 71100.00000 0 -12166387.403 -4481881.498 21973909.599 10 0 60348 72000.00000 0 -9897529.399 -6047872.324 22723853.983 10 0 60348 72900.00000 0 -7698036.585 -7816022.766 23032756.745 10 0 60348 73800.00000 0 -5625141.827 -9746681.077 22894572.623 10 0 60348 74700.00000 0 -3728333.334 -11790709.766 22311924.421 10 0 60348 75600.00000 0 -2047484.149 -13891367.330 21296056.977 10 0 60348 76500.00000 0 -611395.250 -15986524.849 19866625.039 10 0 60348 77400.00000 0 563187.707 -18011126.060 18051318.556 10 0 60348 78300.00000 0 1472043.594 -19899789.137 15885331.934 10 0 60348 79200.00000 0 2123412.020 -21589442.077 13410686.748 10 0 60348 80100.00000 0 2537399.784 -23021881.757 10675420.364 10 0 60348 81000.00000 0 2744883.149 -24146149.515 7732655.655 10 0 60348 81900.00000 0 2785952.772 -24920623.425 4639569.518 10 0 60348 82800.00000 0 2707967.578 -25314738.953 1456280.235 10 0 60348 83700.00000 0 2563300.548 -25310265.188 -1755324.523 10 0 60348 84600.00000 0 2406872.650 -24902082.367 -4932795.749 10 0 60348 85500.00000 0 2293580.215 -24098427.498 -8014343.069 10 0 60349 0.00000 0 2275725.759 -22920597.473 -10940041.835 10 0 60349 900.00000 0 2400562.052 -21402121.221 -13653004.724 10 0 60349 1800.00000 0 2708054.472 -19587437.308 -16100490.427 10 0 60349 2700.00000 0 3228957.190 -17530130.481 -18234932.705 10 0 60349 3600.00000 0 3983285.470 -15290802.757 -20014865.582 10 0 60349 4500.00000 0 4979249.341 -12934667.852 -21405728.306 10 0 60349 5400.00000 0 6212694.322 -10528969.747 -22380534.430 10 0 60349 6300.00000 0 7667073.441 -8140333.171 -22920392.427 10 0 60349 7200.00000 0 9313952.343 -5832156.330 -23014868.246 10 0 60349 8100.00000 0 11114026.940 -3662154.089 -22662183.300 10 0 60349 9000.00000 0 13018611.555 -1680153.216 -21869244.538 10 0 60349 9900.00000 0 14971535.839 73769.429 -20651506.356 10 0 60349 10800.00000 0 16911371.659 1570729.365 -19032667.282 10 0 60349 11700.00000 0 18773897.354 2793998.881 -17044207.361 10 0 60349 12600.00000 0 20494696.729 3739454.529 -14724775.203 10 0 60349 13500.00000 0 22011784.484 4415490.576 -12119436.460 10 0 60349 14400.00000 0 23268148.510 4842403.575 -9278798.159 10 0 60349 15300.00000 0 24214102.827 5051275.306 -6258025.795 10 0 60349 16200.00000 0 24809352.757 5082402.396 -3115772.185 10 0 60349 17100.00000 0 25024685.879 4983339.885 86961.105 10 0 60349 18000.00000 0 24843217.889 4806642.196 3288007.556 10 0 60349 18900.00000 0 24261141.126 4607397.656 6425241.589 10 0 60349 19800.00000 0 23287944.362 4440661.301 9437783.049 10 0 60349 20700.00000 0 21946094.542 4358894.912 12267176.768 10 0 60349 21600.00000 0 20270193.698 4409522.782 14858524.328 10 0 60349 22500.00000 0 18305646.111 4632706.747 17161546.238 10 0 60349 23400.00000 0 16106891.149 5059434.714 19131554.118 10 0 60349 24300.00000 0 13735275.226 5710003.640 20730314.476 10 0 60349 25200.00000 0 11256651.049 6592961.397 21926787.771 10 0 60349 26100.00000 0 8738803.629 7704552.722 22697728.890 10 0 60349 27000.00000 0 6248809.410 9028693.439 23028137.837 10 0 60349 27900.00000 0 3850437.554 10537475.142 22911552.146 10 0 60349 28800.00000 0 1601700.600 12192180.432 22350175.435 10 0 60349 29700.00000 0 -447344.533 13944767.527 21354839.445 10 0 60349 30600.00000 0 -2256454.580 15739763.458 19944799.902 10 0 60349 31500.00000 0 -3796640.406 17516487.818 18147369.566 10 0 60349 32400.00000 0 -5051130.626 19211515.012 15997394.856 10 0 60349 33300.00000 0 -6015818.848 20761272.670 13536585.391 10 0 60349 34200.00000 0 -6699176.459 22104667.709 10812708.776 10 0 60349 35100.00000 0 -7121635.313 23185630.001 7878665.671 10 0 60349 36000.00000 0 -7314466.945 23955466.613 4791462.728 10 0 60349 36900.00000 0 -7318206.235 24374927.169 1611103.341 10 0 60349 37800.00000 0 -7180686.876 24415892.797 -1600582.042 10 0 60349 38700.00000 0 -6954772.477 24062616.824 -4781142.846 10 0 60349 39600.00000 0 -6695880.265 23312464.202 -7868728.346 10 0 60349 40500.00000 0 -6459403.163 22176117.885 -10803296.245 10 0 60349 41400.00000 0 -6298140.385 20677242.892 -13527785.564 10 0 60349 42300.00000 0 -6259846.277 18851621.804 -15989230.386 10 0 60349 43200.00000 0 -6385001.995 16745797.762 -18139792.295 10 0 60349 44100.00000 0 -6704904.998 14415281.729 -19937691.249 10 0 60349 45000.00000 0 -7240157.724 11922399.064 -21348016.733 10 0 60349 45900.00000 0 -7999619.747 9333865.374 -22343403.715 10 0 60349 46800.00000 0 -8979868.055 6718192.721 -22904560.655 10 0 60349 47700.00000 0 -10165188.559 4143034.076 -23020639.827 10 0 60349 48600.00000 0 -11528099.590 1672576.193 -22689443.323 10 0 60349 49500.00000 0 -13030385.805 -634911.277 -21917461.203 10 0 60349 50400.00000 0 -14624599.501 -2729269.315 -20719741.432 10 0 60349 51300.00000 0 -16255966.825 -4570295.503 -19119594.388 10 0 60349 52200.00000 0 -17864619.355 -6129166.902 -17148137.723 10 0 60349 53100.00000 0 -19388057.923 -7389381.894 -14843690.407 10 0 60349 54000.00000 0 -20763745.682 -8347183.232 -12251027.572 10 0 60349 54900.00000 0 -21931721.980 -9011446.161 -9420510.489 10 0 60349 55800.00000 0 -22837127.513 -9403037.796 -6407108.415 10 0 60349 56700.00000 0 -23432534.877 -9553676.115 -3269331.263 10 0 60349 57600.00000 0 -23679986.676 -9504337.806 -68093.792 10 0 60349 58500.00000 0 -23552655.480 -9303283.178 3134466.510 10 0 60349 59400.00000 0 -23036055.799 -9003782.306 6276194.773 10 0 60349 60300.00000 0 -22128756.952 -8661639.123 9296123.805 10 0 60349 61200.00000 0 -20842566.655 -8332618.510 12135655.355 10 0 60349 62100.00000 0 -19202177.270 -8069885.423 14739694.641 10 0 60349 63000.00000 0 -17244289.107 -7921564.391 17057716.322 10 0 60349 63900.00000 0 -15016246.954 -7928522.574 19044741.417 10 0 60349 64800.00000 0 -12574246.157 -8122470.001 20662206.677 10 0 60349 65700.00000 0 -9981182.383 -8524457.260 21878709.987 10 0 60349 66600.00000 0 -7304233.813 -9143834.255 22670617.830 10 0 60349 67500.00000 0 -4612275.489 -9977714.281 23022523.446 10 0 60349 68400.00000 0 -1973232.349 -11010966.728 22927547.097 10 0 60349 69300.00000 0 548520.037 -12216739.576 22387472.686 10 0 60349 70200.00000 0 2894599.963 -13557490.855 21412717.929 10 0 60349 71100.00000 0 5014808.704 -14986486.958 20022138.265 10 0 60349 72000.00000 0 6868973.955 -16449706.069 18242667.702 10 0 60349 72900.00000 0 8428371.660 -17888067.891 16108802.850 10 0 60349 73800.00000 0 9676667.603 -19239896.896 13661939.341 10 0 60349 74700.00000 0 10610340.071 -20443516.168 10949572.791 10 0 60349 75600.00000 0 11238566.523 -21439863.007 8024379.254 10 0 60349 76500.00000 0 11582579.710 -22175016.150 4943192.633 10 0 60349 77400.00000 0 11674520.997 -22602527.754 1765898.873 10 0 60349 78300.00000 0 11555839.999 -22685461.227 -1445731.371 10 0 60349 79200.00000 0 11275308.916 -22398048.175 -4629248.464 10 0 60349 80100.00000 0 10886736.379 -21726893.698 -7722743.763 10 0 60349 81000.00000 0 10446478.452 -20671678.319 -10666059.356 10 0 60349 81900.00000 0 10010853.061 -19245326.168 -13401963.302 10 0 60349 82800.00000 0 9633568.150 -17473631.616 -15877266.795 10 0 60349 83700.00000 0 9363273.177 -15394359.522 -18043861.048 10 0 60349 84600.00000 0 9241338.124 -13055856.402 -19859653.525 10 0 60349 85500.00000 0 9299954.377 -10515230.395 -21289385.260 10 0 60350 0.00000 0 9560637.965 -7836176.125 -22305313.562 10 0 60350 900.00000 0 10033198.679 -5086533.513 -22887747.724 10 0 60350 1800.00000 0 10715218.204 -2335685.615 -23025426.572 10 0 60350 2700.00000 0 11592059.788 348101.450 -22715732.883 10 0 60350 3600.00000 0 12637408.895 2900282.870 -21964739.543 10 0 60350 4500.00000 0 13814322.254 5262477.714 -20787087.531 10 0 60350 5400.00000 0 15076741.420 7384648.890 -19205698.270 10 0 60350 6300.00000 0 16371407.454 9226930.965 -17251325.964 10 0 60350 7200.00000 0 17640096.511 10761031.002 -14961958.630 10 0 60350 8100.00000 0 18822082.631 11971145.418 -12382079.303 10 0 60350 9000.00000 0 19856724.421 12854356.067 -9561801.614 10 0 60350 9900.00000 0 20686066.982 13420490.443 -6555896.418 10 0 60350 10800.00000 0 21257349.734 13691453.310 -3422728.281 10 0 60350 11700.00000 0 21525314.567 13700059.184 -223122.498 10 0 60350 12600.00000 0 21454217.104 13488415.979 2980815.283 10 0 60350 13500.00000 0 21019456.215 13105928.896 6126903.769 10 0 60350 14400.00000 0 20208752.956 12607009.542 9154091.582 10 0 60350 15300.00000 0 19022828.961 12048587.500 12003640.129 10 0 60350 16200.00000 0 17475555.307 11487529.759 14620260.848 10 0 60350 17100.00000 0 15593564.985 10978077.085 16953184.915 10 0 60350 18000.00000 0 13415344.500 10569405.527 18957144.872 10 0 60350 18900.00000 0 10989841.761 10303415.866 20593249.551 10 0 60350 19800.00000 0 8374647.420 10212844.054 21829735.791 10 0 60350 20700.00000 0 5633824.485 10319772.226 22642582.835 10 0 60350 21600.00000 0 2835475.442 10634603.044 23015977.924 10 0 60350 22500.00000 0 49146.907 11155540.775 22942624.369 10 0 60350 23400.00000 0 -2656821.444 11868601.409 22423886.185 10 0 60350 24300.00000 0 -5217894.633 12748152.049 21469766.381 10 0 60350 25200.00000 0 -7575779.948 13757957.747 20098718.911 10 0 60350 26100.00000 0 -9680603.819 14852692.696 18337297.363 10 0 60350 27000.00000 0 -11492738.265 15979853.151 16219646.459 10 0 60350 27900.00000 0 -12984201.419 17081992.408 13786845.427 10 0 60350 28800.00000 0 -14139574.305 18099184.361 11086115.263 10 0 60350 29700.00000 0 -14956396.018 18971612.169 8169904.660 10 0 60350 30600.00000 0 -15445021.343 19642172.915 5094871.972 10 0 60350 31500.00000 0 -15627947.337 20058988.037 1920782.919 10 0 60350 32400.00000 0 -15538637.904 20177712.989 -1290654.357 10 0 60350 33300.00000 0 -15219896.644 19963547.746 -4476993.793 10 0 60350 34200.00000 0 -14721857.498 19392862.333 -7576271.338 10 0 60350 35100.00000 0 -14099678.967 18454367.689 -10528215.846 10 0 60350 36000.00000 0 -13411040.289 17149781.498 -13275426.600 10 0 60350 36900.00000 0 -12713546.298 15493959.983 -15764493.868 10 0 60350 37800.00000 0 -12062151.429 13514489.298 -17947040.207 10 0 60350 38700.00000 0 -11506712.322 11250752.966 -19780662.021 10 0 60350 39600.00000 0 -11089772.795 8752513.919 -21229753.034 10 0 60350 40500.00000 0 -10844674.850 6078069.928 -22266193.891 10 0 60350 41400.00000 0 -10794075.398 3292059.034 -22869894.918 10 0 60350 42300.00000 0 -10948931.062 463006.060 -23029181.973 10 0 60350 43200.00000 0 -11307993.572 -2339288.198 -22741018.460 10 0 60350 44100.00000 0 -11857836.734 -5046407.056 -22011059.681 10 0 60350 45000.00000 0 -12573413.571 -7593917.464 -20853538.876 10 0 60350 45900.00000 0 -13419120.031 -9923801.751 -19290987.394 10 0 60350 46800.00000 0 -14350320.368 -11986621.524 -17353794.544 10 0 60350 47700.00000 0 -15315270.001 -13743324.734 -15079615.633 10 0 60350 48600.00000 0 -16257354.914 -15166621.923 -12512639.588 10 0 60350 49500.00000 0 -17117553.365 -16241875.514 -9702730.203 10 0 60350 50400.00000 0 -17837016.243 -16967466.325 -6704457.579 10 0 60350 51300.00000 0 -18359657.329 -17354623.331 -3576038.491 10 0 60350 52200.00000 0 -18634644.240 -17426725.095 -378206.238 10 0 60350 53100.00000 0 -18618684.883 -17218103.423 2826967.970 10 0 60350 54000.00000 0 -18278012.836 -16772400.605 5977279.073 10 0 60350 54900.00000 0 -17589987.641 -16140550.291 9011594.192 10 0 60350 55800.00000 0 -16544242.208 -15378467.727 11871037.070 10 0 60350 56700.00000 0 -15143328.481 -14544547.168 14500127.967 10 0 60350 57600.00000 0 -13402833.547 -13697072.139 16847857.020 10 0 60350 58500.00000 0 -11350960.479 -12891647.720 18868670.481 10 0 60350 59400.00000 0 -9027590.484 -12178762.875 20523351.107 10 0 60350 60300.00000 0 -6482864.461 -11601585.188 21779776.117 10 0 60350 61200.00000 0 -3775341.926 -11194080.542 22613538.469 10 0 60350 62100.00000 0 -969812.765 -10979536.575 23008419.876 10 0 60350 63000.00000 0 1865148.503 -10969551.845 22956706.679 10 0 60350 63900.00000 0 4659785.530 -11163533.227 22459342.542 10 0 60350 64800.00000 0 7345813.111 -11548722.892 21525914.894 10 0 60350 65700.00000 0 9859011.232 -12100754.125 20174474.966 10 0 60350 66600.00000 0 12141653.284 -12784713.149 18431194.373 10 0 60350 67500.00000 0 14144668.273 -13556662.911 16329864.098 10 0 60350 68400.00000 0 15829447.572 -14365565.263 13911244.856 10 0 60350 69300.00000 0 17169221.348 -15155521.019 11222280.644 10 0 60350 70200.00000 0 18149947.546 -15868233.718 8315190.188 10 0 60350 71100.00000 0 18770676.615 -16445593.117 5246453.485 10 0 60350 72000.00000 0 19043377.047 -16832269.016 2075713.073 10 0 60350 72900.00000 0 18992229.592 -16978205.279 -1135388.428 10 0 60350 73800.00000 0 18652420.399 -16840907.760 -4324411.509 10 0 60350 74700.00000 0 18068484.700 -16387428.497 -7429339.576 10 0 60350 75600.00000 0 17292271.664 -15595961.160 -10389790.905 10 0 60350 76500.00000 0 16380617.205 -14456979.298 -13148198.407 10 0 60350 77400.00000 0 15392823.821 -12973868.228 -15650933.541 10 0 60350 78300.00000 0 14388054.618 -11163022.954 -17849351.994 10 0 60350 79200.00000 0 13422752.087 -9053407.050 -19700740.572 10 0 60350 80100.00000 0 12548190.918 -6685590.234 -21169146.788 10 0 60350 81000.00000 0 11808268.151 -4110304.248 -22226075.279 10 0 60350 81900.00000 0 11237623.658 -1386576.733 -22851037.929 10 0 60350 82800.00000 0 10860169.781 1420479.567 -23031947.469 10 0 60350 83700.00000 0 10688091.516 4242130.782 -22765347.514 10 0 60350 84600.00000 0 10721358.700 7008637.170 -22056475.036 10 0 60350 85500.00000 0 10947770.125 9651911.565 -20919154.467 99